Location: Pasarilla del Rebollar
(40.6790°N, 5.0062°W)
Time: 12:11:25
(UTC+00:00)

Sich 1 - Pass Details

Date: 22 April 2026
Orbit: 570 x 598 km, 82.5° (Epoch: 16 May)

Event Time Altitude Azimuth Distance (km) Brightness Sun altitude
Rises 03:58:18 0° 355° (N) 2,789 6.8 -16.8°
Reaches altitude 10° 04:00:31 10° 358° (N) 1,884 5.9 -16.4°
Maximum altitude 04:04:38 68° 81° (E) 617 3.2 -15.8°
Drops below altitude 10° 04:08:44 10° 165° (SSE) 1,864 5.4 -15.1°
Sets 04:10:54 0° 168° (SSE) 2,757 6.2 -14.7°
